ASTRA 1G

Last updated on May 23, 2019, 3:05 a.m. UTC

1 25071U 97076A   19142.04428712  .00000059  00000-0  00000+0 0  9992
2 25071   3.7804  75.3543 0003905 342.8982 254.2632  1.00270774 78635
UTC
Height (km)
Latitude
Longitude
Inclination
Orbital Period
UTC large
Height (km)
Speed (km/s)
/
Latitude / Longitude
Inclination (degrees)
Orbital Period (minutes)
Azimuth
Elevation
Range (km)
Doppler Factor
iOS Compass Heading
iOS Angle

Next 30 passes for location: Hong Kong

Rise time Rise Azimuth (degrees) Set time Set Azimuth (degrees) Duration Max altitude (degrees)

No matching passes for this satellites